{"data":{"norad_id":25397,"epoch":"2026-09-19T23:05:28.541760Z","epoch_age_seconds":57553,"freshness":"FRESH","line1":"1 25397U 98043D   26262.96213590  .00000023  00000+0  29983-4 0  9992","line2":"2 25397  99.0159 258.1495 0000763   0.4741 359.6438 14.24443408464823","mean_motion":14.24443408,"eccentricity":7.63e-5,"inclination_deg":99.0159,"raan_deg":258.1495,"arg_perigee_deg":0.4741,"mean_anomaly_deg":359.6438,"bstar":2.9983e-5,"rev_number":46482,"period_min":101.0921172377,"perigee_km":809.81613532208,"apogee_km":810.91310066898,"semimajor_km":7188.5016179955,"source":"CELESTRAK","updated_at":"2026-09-20T09:00:45.227917Z"}}